STARLINK-36476, 67314

Orbit data source: Space-Track

STARLINK-36476, 67314 is a payload satellite owned by SpaceX/Seattle (US) in LEO that was launched on Sun, 04 Jan 2026 UTC via an FALCON 9 launch vehicle from the Air Force Eastern Test Range (AFETR). Payload-class satellites include a variety of spacecraft equipped with specific instruments for various scientific and technological missions. These include communications satellites like Starlink; space stations such as the ISS; scientific satellites like the Hubble; Earth observation satellites from companies like Planet Labs, Umbra, and HawkEye 360; GPS; miniature CubeSats for education and research; and military/defense satellites.

Loading next visibility...
Identifier
67314, 2026-002K
Orbit
LEO
Country
Flag of USUS
Related business
Manufacturer
SpaceX/Seattle
Mission
Operational Commercial Communications
Bus & Motor
STARLINK V2MO, Unknown motor
Mass
575 kg wet, ~530 kg dry
Launch date (UTC)
2026-01-04 (5 months ago)
Launch vehicle
FALCON 9
Launch site
Air Force Eastern Test Range (AFETR)
Object type
Payload
Rocket body
Debris
Shape & HBR
Box + 2 Pan, 17.7 m
Radar Cross Section
36.964 m², Large (>1 m²)

Expand to show TLE details & history
Last TLE update: 16 hours ago

TLE from 16 hours ago
0 STARLINK-36476
1 67314U 26002K   26171.18474323  .00010491  00000-0  39008-3 0  9998
2 67314  42.9986 106.4775 0000888 260.2603  99.8148 15.27591486 26740
Epoch: 2026-06-20T04:26Z
TLE epoch observation values (Epoch: 2026-06-20T04:26:01.815Z)
Latitude
-0.00002°
Longitude
131.56691°
Altitude
482.894 km
Speed
7.626 km/s
True Right ascension
07h 05m 54s
True Declination
0° 00' 00"
Sunlit
Object was in daylight at epoch
Visualization orbit readout
Latitude
Unknown
Longitude
Unknown
Altitude
Unknown
Speed
Unknown
Apparent Right ascension
Unknown
Apparent Declination
Unknown
Sunlit
N/A
Visualization observer readout
Local Sidereal Time
07:20:39
Azimuth
Unknown
Elevation
Unknown
Doppler factor
Unknown
Orbital elements
Apogee altitude
485.57 km
Perigee altitude
484.351 km
Semi-major axis
6,863.097 km
Eccentricity
0.00009
Inclination
42.9986°
RAAN
106.4775°
Arg. of periapsis
260.2603°
True anomaly
99.82483°
Mean anomaly
99.8148°
Eccentric anomaly
99.81981°
Mean motion
3.81736 °/min
Orbital period
94.31 mins
BSTAR
0.00039008
Loading maneuver chart data...
Computing Atmospheric mass density...
Loading historical data...
Loading historical data...
Loading historical data...
Loading historical data...
Loading historical data...
Loading historical data...
Loading historical data...

Documentation

Showing up to 5 results
|